{"data":{"norad_id":68487,"intl_designator":"2026-067BZ","name":"AE1A","alt_names":[],"object_type":"PAYLOAD","status":"ACTIVE","operator":null,"country":"JPN","launch_date":"2026-03-30","launch_site_code":"AFWTR","launch_vehicle":null,"mission":null,"orbit_class":"UNKNOWN","rcs_meters":null,"size_class":null,"mass_kg":null,"dimensions":null,"purposes":[],"wikipedia_slug":null,"has_3d_model":false,"image_url":null,"decayed_at":null,"tle_current":{"epoch":"2026-09-20T02:48:27.023616Z","epoch_age_seconds":101968,"freshness":"FRESH","line1":"1 68487U 26067BZ  26263.11697944  .00002347  00000+0  22967-3 0  9998","line2":"2 68487  97.7648 220.0901 0000877  14.8404 345.2841 14.93272791 25899","mean_motion":14.93272791,"eccentricity":8.77e-5,"inclination_deg":97.7648,"raan_deg":220.0901,"arg_perigee_deg":14.8404,"mean_anomaly_deg":345.2841,"bstar":0.00022967,"rev_number":2589,"period_min":96.432480969246,"perigee_km":587.12810535674,"apogee_km":588.34992000936,"semimajor_km":6965.8760126831,"source":"CELESTRAK","updated_at":"2026-09-20T09:00:24.253192Z"}}}